This demonstration page uses our WeatherBlox Daily Observations layout. Learn more.

Left ArrowRight Arrow

39.29038, -76.61219

Hourly Observations for July 29, 2021

Temp ( °F °C ) Dew Point ( °F °C ) Humidity (%) Winds ( mph kmh ) Pressure ( in mb ) Visibility ( mi km ) Precip ( " mm )
12:54 am 00:54 Mostly Cloudy 78 25.6 67 19.4 69 69 SE 6 9 29.99 1016 10 16 N/A
1:54 am 01:54 Mostly Cloudy 77 25 69 20.6 77 77 SE 6 9 29.97 1015 10 16 N/A
2:54 am 02:54 Mostly Cloudy 76 24.4 69 20.6 79 79 SE 5 7 29.97 1015 10 16 N/A
3:54 am 03:54 Mostly Cloudy 75 23.9 68 20 79 79 ESE 6 9 29.98 1015 10 16 N/A
4:54 am 04:54 Mostly Cloudy 75 23.9 68 20 79 79 SE 3 6 29.97 1015 10 16 N/A
5:07 am 05:07 Cloudy 75 23.9 68 20 79 79 SE 3 6 29.97 1015 10 16 N/A
5:36 am 05:36 Mostly Cloudy 75 23.9 67 19.4 76 76 N N/A 29.97 1015 10 16 N/A
5:54 am 05:54 Cloudy 74 23.3 68 20 82 82 N N/A 29.98 1015 10 16 N/A
6:46 am 06:46 Cloudy 76 24.4 69 20.6 79 79 E 3 6 29.99 1016 10 16 N/A
6:54 am 06:54 Mostly Cloudy 76 24.4 69 20.6 79 79 N N/A 29.99 1016 10 16 N/A
7:50 am 07:50 Mostly Cloudy 77 25 70 21 79 79 SE 3 6 29.97 1015 10 16 N/A
7:54 am 07:54 Mostly Cloudy 77 25 70 21.1 79 79 N N/A 29.98 1015 10 16 N/A
8:30 am 08:30 Mostly Cloudy 79 26.1 71 21.7 77 77 SSE 5 7 29.96 1015 10 16 N/A
8:39 am 08:39 Mostly Cloudy 78 25.6 71 21.7 79 79 S 5 7 29.96 1015 10 16 N/A
8:54 am 08:54 Mostly Cloudy 79 26.1 71 21.7 77 77 SSE 5 7 29.97 1015 10 16 N/A
9:18 am 09:18 Mostly Cloudy 81 27.2 72 22.2 74 74 VRB 7 11 29.96 1015 10 16 N/A
9:54 am 09:54 Mostly Cloudy 81 27.2 71 21.7 72 72 SW 8 13 29.97 1015 10 16 N/A
10:54 am 10:54 Mostly Cloudy 83 28.3 70 21.1 65 65 SSW 7 11 29.95 1014 10 16 N/A
11:54 am 11:54 Mostly Cloudy 87 30.6 70 21.1 57 57 SSW 8 13 29.94 1014 10 16 N/A
12:54 pm 12:54 Cloudy 87 30.6 69 20.6 55 55 SSW 8 13 29.91 1013 10 16 N/A
1:54 pm 13:54 Cloudy 88 31.1 69 20.6 54 54 VRB 3 6 29.88 1012 10 16 N/A
2:54 pm 14:54 Cloudy 89 31.7 70 21.1 53 53 SW 7 11 29.86 1011 10 16 N/A
3:54 pm 15:54 Cloudy 88 31.1 70 21.1 55 55 SSW 10 17 29.84 1010 10 16 N/A
4:54 pm 16:54 Cloudy with Thunderstorms 87 30.6 67 19.4 51 51 SSW 7 11 29.81 1009 10 16 N/A
5:18 pm 17:18 Windy with Storms Likely 79 26.1 71 21.7 77 77 N 25 41 29.84 1011 1 1 0.12 3.05
5:25 pm 17:25 Cloudy with Strong Thunderstorms 73 22.8 67 19.4 81 81 NE 20 31 29.86 1011 0 0 0.64 16.26
5:28 pm 17:28 Cloudy with Strong Thunderstorms 73 22.8 68 20 84 84 NNE 23 37 29.84 1011 0 0 0.92 23.37
5:35 pm 17:35 Cloudy with Strong Thunderstorms 75 23.9 68 20 79 79 ESE 18 30 29.78 1009 1 1 1.36 34.54
5:40 pm 17:40 Cloudy with Strong Thunderstorms 75 23.9 69 20.6 82 82 VRB 7 11 29.79 1009 2 3 1.37 34.80
5:47 pm 17:47 Cloudy with Thunderstorms 75 23.9 69 20.6 82 82 SE 10 17 29.80 1009 6 10 1.37 34.80
5:51 pm 17:51 Cloudy 75 24 70 21 83 83 SSW 5 7 29.80 1009 6 10 1.37 34.80
5:54 pm 17:54 Cloudy 76 24.4 70 21.1 82 82 SSE 7 11 29.81 1010 10 16 1.37 34.80
6:54 pm 18:54 Mostly Cloudy with Light Rain 77 25 73 22.8 88 88 SW 12 19 29.82 1010 5 8 0.00 0.00
7:54 pm 19:54 Partly Cloudy 76 24.4 71 21.7 85 85 WSW 6 9 29.81 1009 9 14 0.01 0.25
8:54 pm 20:54 Partly Cloudy 75 23.9 71 21.7 88 88 SW 3 6 29.79 1009 9 14 N/A
9:54 pm 21:54 Partly Cloudy 76 24.4 72 22.2 88 88 S 6 9 29.80 1009 8 13 N/A
10:54 pm 22:54 Partly Cloudy 75 23.9 72 22.2 90 90 SW 5 7 29.80 1009 7 11 N/A
11:54 pm 23:54 Mostly Clear 75 23.9 71 21.7 88 88 W 5 7 29.78 1009 7 11 N/A

Powered by AerisWeather